Year,Month,Day,Hour,Minute,Value (Times are PST for temperature in C)
2013,04,16,00,00,6.40
2013,04,16,00,01,6.40
2013,04,16,00,02,6.40
2013,04,16,00,03,6.40
2013,04,16,00,04,6.40
2013,04,16,00,05,6.40
2013,04,16,00,06,6.30
2013,04,16,00,07,6.30
2013,04,16,00,08,6.30
2013,04,16,00,09,6.20
2013,04,16,00,10,6.20
2013,04,16,00,11,6.20
2013,04,16,00,12,6.10
2013,04,16,00,13,6.10
2013,04,16,00,14,6.10
2013,04,16,00,15,6.00
2013,04,16,00,16,6.00
2013,04,16,00,17,5.90
2013,04,16,00,18,5.90
2013,04,16,00,19,5.90
2013,04,16,00,20,5.80
2013,04,16,00,21,5.80
2013,04,16,00,22,5.80
2013,04,16,00,23,5.80
2013,04,16,00,24,5.70
2013,04,16,00,25,5.70
2013,04,16,00,26,5.70
2013,04,16,00,27,5.70
2013,04,16,00,28,5.60
2013,04,16,00,29,5.60
2013,04,16,00,30,5.60
2013,04,16,00,31,5.60
2013,04,16,00,32,5.60
2013,04,16,00,33,5.60
2013,04,16,00,34,5.50
2013,04,16,00,35,5.50
2013,04,16,00,36,5.40
2013,04,16,00,37,5.40
2013,04,16,00,38,5.40
2013,04,16,00,39,5.40
2013,04,16,00,40,5.30
2013,04,16,00,41,5.30
2013,04,16,00,42,5.30
2013,04,16,00,43,5.30
2013,04,16,00,44,5.30
2013,04,16,00,45,5.30
2013,04,16,00,46,5.30
2013,04,16,00,47,5.30
2013,04,16,00,48,5.30
2013,04,16,00,49,5.30
2013,04,16,00,50,5.30
2013,04,16,00,51,5.30
2013,04,16,00,52,5.30
2013,04,16,00,53,5.30
2013,04,16,00,54,5.20
2013,04,16,00,55,5.20
2013,04,16,00,56,5.20
2013,04,16,00,57,5.20
2013,04,16,00,58,5.20
2013,04,16,00,59,5.30
2013,04,16,01,00,5.30
2013,04,16,01,01,5.30
2013,04,16,01,02,5.30
2013,04,16,01,03,5.30
2013,04,16,01,04,5.30
2013,04,16,01,05,5.30
2013,04,16,01,06,5.30
2013,04,16,01,07,5.30
2013,04,16,01,08,5.40
2013,04,16,01,09,5.40
2013,04,16,01,10,5.40
2013,04,16,01,11,5.40
2013,04,16,01,12,5.40
2013,04,16,01,13,5.40
2013,04,16,01,14,5.40
2013,04,16,01,15,5.40
2013,04,16,01,16,5.40
2013,04,16,01,17,5.40
2013,04,16,01,18,5.40
2013,04,16,01,19,5.40
2013,04,16,01,20,5.40
2013,04,16,01,21,5.40
2013,04,16,01,22,5.40
2013,04,16,01,23,5.40
2013,04,16,01,24,5.30
2013,04,16,01,25,5.30
2013,04,16,01,26,5.30
2013,04,16,01,27,5.30
2013,04,16,01,28,5.30
2013,04,16,01,29,5.30
2013,04,16,01,30,5.30
2013,04,16,01,31,5.40
2013,04,16,01,32,5.40
2013,04,16,01,33,5.40
2013,04,16,01,34,5.40
2013,04,16,01,35,5.30
2013,04,16,01,36,5.30
2013,04,16,01,37,5.30
2013,04,16,01,38,5.30
2013,04,16,01,39,5.20
2013,04,16,01,40,5.20
2013,04,16,01,41,5.20
2013,04,16,01,42,5.20
2013,04,16,01,43,5.10
2013,04,16,01,44,5.10
2013,04,16,01,45,5.10
2013,04,16,01,46,5.10
2013,04,16,01,47,5.10
2013,04,16,01,48,5.10
2013,04,16,01,49,5.00
2013,04,16,01,50,5.00
2013,04,16,01,51,4.90
2013,04,16,01,52,4.90
2013,04,16,01,53,4.90
2013,04,16,01,54,4.90
2013,04,16,01,55,4.80
2013,04,16,01,56,4.80
2013,04,16,01,57,4.80
2013,04,16,01,58,4.80
2013,04,16,01,59,4.80
2013,04,16,02,00,4.80
2013,04,16,02,01,4.80
2013,04,16,02,02,4.70
2013,04,16,02,03,4.70
2013,04,16,02,04,4.70
2013,04,16,02,05,4.70
2013,04,16,02,06,4.70
2013,04,16,02,07,4.70
2013,04,16,02,08,4.70
2013,04,16,02,09,4.70
2013,04,16,02,10,4.70
2013,04,16,02,11,4.70
2013,04,16,02,12,4.80
2013,04,16,02,13,4.80
2013,04,16,02,14,4.80
2013,04,16,02,15,4.80
2013,04,16,02,16,4.80
2013,04,16,02,17,4.80
2013,04,16,02,18,4.80
2013,04,16,02,19,4.80
2013,04,16,02,20,4.80
2013,04,16,02,21,4.80
2013,04,16,02,22,4.80
2013,04,16,02,23,4.70
2013,04,16,02,24,4.70
2013,04,16,02,25,4.70
2013,04,16,02,26,4.70
2013,04,16,02,27,4.70
2013,04,16,02,28,4.70
2013,04,16,02,29,4.60
2013,04,16,02,30,4.60
2013,04,16,02,31,4.60
2013,04,16,02,32,4.60
2013,04,16,02,33,4.70
2013,04,16,02,34,4.70
2013,04,16,02,35,4.70
2013,04,16,02,36,4.80
2013,04,16,02,37,4.80
2013,04,16,02,38,4.80
2013,04,16,02,39,4.90
2013,04,16,02,40,4.90
2013,04,16,02,41,4.90
2013,04,16,02,42,5.00
2013,04,16,02,43,5.00
2013,04,16,02,44,5.00
2013,04,16,02,45,5.10
2013,04,16,02,46,5.10
2013,04,16,02,47,5.10
2013,04,16,02,48,5.20
2013,04,16,02,49,5.20
2013,04,16,02,50,5.20
2013,04,16,02,51,5.20
2013,04,16,02,52,5.20
2013,04,16,02,53,5.20
2013,04,16,02,54,5.20
2013,04,16,02,55,5.20
2013,04,16,02,56,5.20
2013,04,16,02,57,5.10
2013,04,16,02,58,5.10
2013,04,16,02,59,5.10
2013,04,16,03,00,5.00
2013,04,16,03,01,5.00
2013,04,16,03,02,4.90
2013,04,16,03,03,4.90
2013,04,16,03,04,4.80
2013,04,16,03,05,4.70
2013,04,16,03,06,4.60
2013,04,16,03,07,4.50
2013,04,16,03,08,4.40
2013,04,16,03,09,4.20
2013,04,16,03,10,4.10
2013,04,16,03,11,4.00
2013,04,16,03,12,3.90
2013,04,16,03,13,3.80
2013,04,16,03,14,3.70
2013,04,16,03,15,3.60
2013,04,16,03,16,3.60
2013,04,16,03,17,3.50
2013,04,16,03,18,3.50
2013,04,16,03,19,3.40
2013,04,16,03,20,3.40
2013,04,16,03,21,3.40
2013,04,16,03,22,3.40
2013,04,16,03,23,3.40
2013,04,16,03,24,3.50
2013,04,16,03,25,3.60
2013,04,16,03,26,3.70
2013,04,16,03,27,3.70
2013,04,16,03,28,3.80
2013,04,16,03,29,3.90
2013,04,16,03,30,4.00
2013,04,16,03,31,4.00
2013,04,16,03,32,4.10
2013,04,16,03,33,4.10
2013,04,16,03,34,4.20
2013,04,16,03,35,4.20
2013,04,16,03,36,4.20
2013,04,16,03,37,4.30
2013,04,16,03,38,4.30
2013,04,16,03,39,4.30
2013,04,16,03,40,4.30
2013,04,16,03,41,4.30
2013,04,16,03,42,4.30
2013,04,16,03,43,4.40
2013,04,16,03,44,4.40
2013,04,16,03,45,4.40
2013,04,16,03,46,4.40
2013,04,16,03,47,4.40
2013,04,16,03,48,4.40
2013,04,16,03,49,4.40
2013,04,16,03,50,4.40
2013,04,16,03,51,4.50
2013,04,16,03,52,4.50
2013,04,16,03,53,4.50
2013,04,16,03,54,4.60
2013,04,16,03,55,4.60
2013,04,16,03,56,4.60
2013,04,16,03,57,4.50
2013,04,16,03,58,4.50
2013,04,16,03,59,4.50
2013,04,16,04,00,4.40
2013,04,16,04,01,4.40
2013,04,16,04,02,4.40
2013,04,16,04,03,4.30
2013,04,16,04,04,4.30
2013,04,16,04,05,4.20
2013,04,16,04,06,4.20
2013,04,16,04,07,4.10
2013,04,16,04,08,4.10
2013,04,16,04,09,4.00
2013,04,16,04,10,3.90
2013,04,16,04,11,3.90
2013,04,16,04,12,3.80
2013,04,16,04,13,3.80
2013,04,16,04,14,3.70
2013,04,16,04,15,3.60
2013,04,16,04,16,3.50
2013,04,16,04,17,3.50
2013,04,16,04,18,3.40
2013,04,16,04,19,3.40
2013,04,16,04,20,3.30
2013,04,16,04,21,3.30
2013,04,16,04,22,3.20
2013,04,16,04,23,3.20
2013,04,16,04,24,3.20
2013,04,16,04,25,3.20
2013,04,16,04,26,3.10
2013,04,16,04,27,3.10
2013,04,16,04,28,3.10
2013,04,16,04,29,3.10
2013,04,16,04,30,3.10
2013,04,16,04,31,3.10
2013,04,16,04,32,3.00
2013,04,16,04,33,3.00
2013,04,16,04,34,3.00
2013,04,16,04,35,3.00
2013,04,16,04,36,3.00
2013,04,16,04,37,3.00
2013,04,16,04,38,3.00
2013,04,16,04,39,3.10
2013,04,16,04,40,3.20
2013,04,16,04,41,3.30
2013,04,16,04,42,3.40
2013,04,16,04,43,3.40
2013,04,16,04,44,3.50
2013,04,16,04,45,3.60
2013,04,16,04,46,3.70
2013,04,16,04,47,3.70
2013,04,16,04,48,3.70
2013,04,16,04,49,3.70
2013,04,16,04,50,3.70
2013,04,16,04,51,3.80
2013,04,16,04,52,3.80
2013,04,16,04,53,3.80
2013,04,16,04,54,3.80
2013,04,16,04,55,3.90
2013,04,16,04,56,3.90
2013,04,16,04,57,3.90
2013,04,16,04,58,4.00
2013,04,16,04,59,4.00
2013,04,16,05,00,4.00
2013,04,16,05,01,4.00
2013,04,16,05,02,4.10
2013,04,16,05,03,4.10
2013,04,16,05,04,4.10
2013,04,16,05,05,4.10
2013,04,16,05,06,4.10
2013,04,16,05,07,4.20
2013,04,16,05,08,4.20
2013,04,16,05,09,4.20
2013,04,16,05,10,4.20
2013,04,16,05,11,4.20
2013,04,16,05,12,4.20
2013,04,16,05,13,4.30
2013,04,16,05,14,4.30
2013,04,16,05,15,4.30
2013,04,16,05,16,4.30
2013,04,16,05,17,4.30
2013,04,16,05,18,4.30
2013,04,16,05,19,4.30
2013,04,16,05,20,4.30
2013,04,16,05,21,4.30
2013,04,16,05,22,4.30
2013,04,16,05,23,4.20
2013,04,16,05,24,4.20
2013,04,16,05,25,4.20
2013,04,16,05,26,4.20
2013,04,16,05,27,4.20
2013,04,16,05,28,4.20
2013,04,16,05,29,4.30
2013,04,16,05,30,4.30
2013,04,16,05,31,4.30
2013,04,16,05,32,4.40
2013,04,16,05,33,4.40
2013,04,16,05,34,4.50
2013,04,16,05,35,4.50
2013,04,16,05,36,4.50
2013,04,16,05,37,4.60
2013,04,16,05,38,4.60
2013,04,16,05,39,4.70
2013,04,16,05,40,4.70
2013,04,16,05,41,4.70
2013,04,16,05,42,4.70
2013,04,16,05,43,4.70
2013,04,16,05,44,4.70
2013,04,16,05,45,4.80
2013,04,16,05,46,4.80
2013,04,16,05,47,4.80
2013,04,16,05,48,4.80
2013,04,16,05,49,4.80
2013,04,16,05,50,4.80
2013,04,16,05,51,4.80
2013,04,16,05,52,4.80
2013,04,16,05,53,4.80
2013,04,16,05,54,4.80
2013,04,16,05,55,4.80
2013,04,16,05,56,4.80
2013,04,16,05,57,4.70
2013,04,16,05,58,4.60
2013,04,16,05,59,4.60
2013,04,16,06,00,4.50
2013,04,16,06,01,4.30
2013,04,16,06,02,4.20
2013,04,16,06,03,4.10
2013,04,16,06,04,4.00
2013,04,16,06,05,3.90
2013,04,16,06,06,3.80
2013,04,16,06,07,3.70
2013,04,16,06,08,3.70
2013,04,16,06,09,3.60
2013,04,16,06,10,3.60
2013,04,16,06,11,3.60
2013,04,16,06,12,3.60
2013,04,16,06,13,3.60
2013,04,16,06,14,3.60
2013,04,16,06,15,3.60
2013,04,16,06,16,3.70
2013,04,16,06,17,3.70
2013,04,16,06,18,3.70
2013,04,16,06,19,3.80
2013,04,16,06,20,3.80
2013,04,16,06,21,3.80
2013,04,16,06,22,3.90
2013,04,16,06,23,3.90
2013,04,16,06,24,3.90
2013,04,16,06,25,4.00
2013,04,16,06,26,4.00
2013,04,16,06,27,4.10
2013,04,16,06,28,4.10
2013,04,16,06,29,4.10
2013,04,16,06,30,4.10
2013,04,16,06,31,4.10
2013,04,16,06,32,4.10
2013,04,16,06,33,4.10
2013,04,16,06,34,4.10
2013,04,16,06,35,4.10
2013,04,16,06,36,4.10
2013,04,16,06,37,4.20
2013,04,16,06,38,4.20
2013,04,16,06,39,4.20
2013,04,16,06,40,4.20
2013,04,16,06,41,4.20
2013,04,16,06,42,4.20
2013,04,16,06,43,4.20
2013,04,16,06,44,4.30
2013,04,16,06,45,4.30
2013,04,16,06,46,4.30
2013,04,16,06,47,4.30
2013,04,16,06,48,4.30
2013,04,16,06,49,4.30
2013,04,16,06,50,4.30
2013,04,16,06,51,4.30
2013,04,16,06,52,4.30
2013,04,16,06,53,4.30
2013,04,16,06,54,4.20
2013,04,16,06,55,4.20
2013,04,16,06,56,4.20
2013,04,16,06,57,4.20
2013,04,16,06,58,4.20
2013,04,16,06,59,4.20
2013,04,16,07,00,4.20
2013,04,16,07,01,4.10
2013,04,16,07,02,4.10
2013,04,16,07,03,4.10
2013,04,16,07,04,4.10
2013,04,16,07,05,4.10
2013,04,16,07,06,4.10
2013,04,16,07,07,4.10
2013,04,16,07,08,4.10
2013,04,16,07,09,4.20
2013,04,16,07,10,4.20
2013,04,16,07,11,4.20
2013,04,16,07,12,4.20
2013,04,16,07,13,4.20
2013,04,16,07,14,4.20
2013,04,16,07,15,4.20
2013,04,16,07,16,4.30
2013,04,16,07,17,4.30
2013,04,16,07,18,4.30
2013,04,16,07,19,4.30
2013,04,16,07,20,4.30
2013,04,16,07,21,4.30
2013,04,16,07,22,4.30
2013,04,16,07,23,4.30
2013,04,16,07,24,4.30
2013,04,16,07,25,4.30
2013,04,16,07,26,4.30
2013,04,16,07,27,4.30
2013,04,16,07,28,4.30
2013,04,16,07,29,4.30
2013,04,16,07,30,4.30
2013,04,16,07,31,4.40
2013,04,16,07,32,4.40
2013,04,16,07,33,4.50
2013,04,16,07,34,4.50
2013,04,16,07,35,4.60
2013,04,16,07,36,4.60
2013,04,16,07,37,4.70
2013,04,16,07,38,4.70
2013,04,16,07,39,4.80
2013,04,16,07,40,4.80
2013,04,16,07,41,4.90
2013,04,16,07,42,4.90
2013,04,16,07,43,4.90
2013,04,16,07,44,5.00
2013,04,16,07,45,5.00
2013,04,16,07,46,5.10
2013,04,16,07,47,5.10
2013,04,16,07,48,5.10
2013,04,16,07,49,5.20
2013,04,16,07,50,5.20
2013,04,16,07,51,5.30
2013,04,16,07,52,5.30
2013,04,16,07,53,5.30
2013,04,16,07,54,5.30
2013,04,16,07,55,5.40
2013,04,16,07,56,5.40
2013,04,16,07,57,5.40
2013,04,16,07,58,5.40
2013,04,16,07,59,5.40
2013,04,16,08,00,5.40
2013,04,16,08,01,5.50
2013,04,16,08,02,5.50
2013,04,16,08,03,5.50
2013,04,16,08,04,5.60
2013,04,16,08,05,5.60
2013,04,16,08,06,5.60
2013,04,16,08,07,5.60
2013,04,16,08,08,5.60
2013,04,16,08,09,5.70
2013,04,16,08,10,5.70
2013,04,16,08,11,5.70
2013,04,16,08,12,5.80
2013,04,16,08,13,5.80
2013,04,16,08,14,5.90
2013,04,16,08,15,5.90
2013,04,16,08,16,6.00
2013,04,16,08,17,6.10
2013,04,16,08,18,6.20
2013,04,16,08,19,6.30
2013,04,16,08,20,6.30
2013,04,16,08,21,6.40
2013,04,16,08,22,6.50
2013,04,16,08,23,6.60
2013,04,16,08,24,6.60
2013,04,16,08,25,6.70
2013,04,16,08,26,6.70
2013,04,16,08,27,6.80
2013,04,16,08,28,6.80
2013,04,16,08,29,6.90
2013,04,16,08,30,6.90
2013,04,16,08,31,7.00
2013,04,16,08,32,7.00
2013,04,16,08,33,7.10
2013,04,16,08,34,7.20
2013,04,16,08,35,7.20
2013,04,16,08,36,7.30
2013,04,16,08,37,7.40
2013,04,16,08,38,7.50
2013,04,16,08,39,7.60
2013,04,16,08,40,7.70
2013,04,16,08,41,7.80
2013,04,16,08,42,7.90
2013,04,16,08,43,8.00
2013,04,16,08,44,8.10
2013,04,16,08,45,8.20
2013,04,16,08,46,8.20
2013,04,16,08,47,8.30
2013,04,16,08,48,8.40
2013,04,16,08,49,8.50
2013,04,16,08,50,8.60
2013,04,16,08,51,8.60
2013,04,16,08,52,8.70
2013,04,16,08,53,8.70
2013,04,16,08,54,8.70
2013,04,16,08,55,8.80
2013,04,16,08,56,8.80
2013,04,16,08,57,8.90
2013,04,16,08,58,8.90
2013,04,16,08,59,8.90
2013,04,16,09,00,9.00
2013,04,16,09,01,9.10
2013,04,16,09,02,9.10
2013,04,16,09,03,9.10
2013,04,16,09,04,9.20
2013,04,16,09,05,9.20
2013,04,16,09,06,9.20
2013,04,16,09,07,9.20
2013,04,16,09,08,9.20
2013,04,16,09,09,9.20
2013,04,16,09,10,9.10
2013,04,16,09,11,9.10
2013,04,16,09,12,9.10
2013,04,16,09,13,9.10
2013,04,16,09,14,9.10
2013,04,16,09,15,9.10
2013,04,16,09,16,9.10
2013,04,16,09,17,9.10
2013,04,16,09,18,9.20
2013,04,16,09,19,9.20
2013,04,16,09,20,9.30
2013,04,16,09,21,9.30
2013,04,16,09,22,9.30
2013,04,16,09,23,9.30
2013,04,16,09,24,9.30
2013,04,16,09,25,9.30
2013,04,16,09,26,9.30
2013,04,16,09,27,9.30
2013,04,16,09,28,9.40
2013,04,16,09,29,9.40
2013,04,16,09,30,9.40
2013,04,16,09,31,9.40
2013,04,16,09,32,9.40
2013,04,16,09,33,9.40
2013,04,16,09,34,9.50
2013,04,16,09,35,9.50
2013,04,16,09,36,9.50
2013,04,16,09,37,9.50
2013,04,16,09,38,9.50
2013,04,16,09,39,9.60
2013,04,16,09,40,9.60
2013,04,16,09,41,9.70
2013,04,16,09,42,9.70
2013,04,16,09,43,9.70
2013,04,16,09,44,9.70
2013,04,16,09,45,9.70
2013,04,16,09,46,9.80
2013,04,16,09,47,9.80
2013,04,16,09,48,9.80
2013,04,16,09,49,9.80
2013,04,16,09,50,9.80
2013,04,16,09,51,9.90
2013,04,16,09,52,10.00
2013,04,16,09,53,10.10
2013,04,16,09,54,10.10
2013,04,16,09,55,10.20
2013,04,16,09,56,10.20
2013,04,16,09,57,10.20
2013,04,16,09,58,10.20
2013,04,16,09,59,10.20
2013,04,16,10,00,10.20
2013,04,16,10,01,10.20
2013,04,16,10,02,10.20
2013,04,16,10,03,10.20
2013,04,16,10,04,10.10
2013,04,16,10,05,10.10
2013,04,16,10,06,10.10
2013,04,16,10,07,10.10
2013,04,16,10,08,10.10
2013,04,16,10,09,10.10
2013,04,16,10,10,10.20
2013,04,16,10,11,10.20
2013,04,16,10,12,10.20
2013,04,16,10,13,10.20
2013,04,16,10,14,10.10
2013,04,16,10,15,10.10
2013,04,16,10,16,10.00
2013,04,16,10,17,10.00
2013,04,16,10,18,10.00
2013,04,16,10,19,10.00
2013,04,16,10,20,10.00
2013,04,16,10,21,9.90
2013,04,16,10,22,9.90
2013,04,16,10,23,9.90
2013,04,16,10,24,9.90
2013,04,16,10,25,9.90
2013,04,16,10,26,9.90
2013,04,16,10,27,9.90
2013,04,16,10,28,9.90
2013,04,16,10,29,9.90
2013,04,16,10,30,10.00
2013,04,16,10,31,10.00
2013,04,16,10,32,10.00
2013,04,16,10,33,10.10
2013,04,16,10,34,10.10
2013,04,16,10,35,10.10
2013,04,16,10,36,10.10
2013,04,16,10,37,10.10
2013,04,16,10,38,10.10
2013,04,16,10,39,10.20
2013,04,16,10,40,10.20
2013,04,16,10,41,10.30
2013,04,16,10,42,10.30
2013,04,16,10,43,10.30
2013,04,16,10,44,10.40
2013,04,16,10,45,10.50
2013,04,16,10,46,10.50
2013,04,16,10,47,10.60
2013,04,16,10,48,10.60
2013,04,16,10,49,10.70
2013,04,16,10,50,10.70
2013,04,16,10,51,10.70
2013,04,16,10,52,10.60
2013,04,16,10,53,10.60
2013,04,16,10,54,10.60
2013,04,16,10,55,10.70
2013,04,16,10,56,10.70
2013,04,16,10,57,10.70
2013,04,16,10,58,10.80
2013,04,16,10,59,10.70
2013,04,16,11,00,10.70
2013,04,16,11,01,10.70
2013,04,16,11,02,10.70
2013,04,16,11,03,10.70
2013,04,16,11,04,10.70
2013,04,16,11,05,10.80
2013,04,16,11,06,10.80
2013,04,16,11,07,10.80
2013,04,16,11,08,10.70
2013,04,16,11,09,10.70
2013,04,16,11,10,10.70
2013,04,16,11,11,10.70
2013,04,16,11,12,10.70
2013,04,16,11,13,10.80
2013,04,16,11,14,10.80
2013,04,16,11,15,10.90
2013,04,16,11,16,10.90
2013,04,16,11,17,10.90
2013,04,16,11,18,10.90
2013,04,16,11,19,10.90
2013,04,16,11,20,10.90
2013,04,16,11,21,10.90
2013,04,16,11,22,10.80
2013,04,16,11,23,10.80
2013,04,16,11,24,10.80
2013,04,16,11,25,10.80
2013,04,16,11,26,10.80
2013,04,16,11,27,10.80
2013,04,16,11,28,10.80
2013,04,16,11,29,10.80
2013,04,16,11,30,10.70
2013,04,16,11,31,10.80
2013,04,16,11,32,10.70
2013,04,16,11,33,10.70
2013,04,16,11,34,10.70
2013,04,16,11,35,10.70
2013,04,16,11,36,10.70
2013,04,16,11,37,10.80
2013,04,16,11,38,10.80
2013,04,16,11,39,10.80
2013,04,16,11,40,10.80
2013,04,16,11,41,10.90
2013,04,16,11,42,11.00
2013,04,16,11,43,11.00
2013,04,16,11,44,11.00
2013,04,16,11,45,11.10
2013,04,16,11,46,11.10
2013,04,16,11,47,11.20
2013,04,16,11,48,11.20
2013,04,16,11,49,11.20
2013,04,16,11,50,11.30
2013,04,16,11,51,11.30
2013,04,16,11,52,11.30
2013,04,16,11,53,11.40
2013,04,16,11,54,11.30
2013,04,16,11,55,11.40
2013,04,16,11,56,11.50
2013,04,16,11,57,11.50
2013,04,16,11,58,11.60
2013,04,16,11,59,11.60
2013,04,16,12,00,11.60
2013,04,16,12,01,11.60
2013,04,16,12,02,11.60
2013,04,16,12,03,11.70
2013,04,16,12,04,11.60
2013,04,16,12,05,11.60
2013,04,16,12,06,11.60
2013,04,16,12,07,11.70
2013,04,16,12,08,11.70
2013,04,16,12,09,11.70
2013,04,16,12,10,11.80
2013,04,16,12,11,11.80
2013,04,16,12,12,11.80
2013,04,16,12,13,11.80
2013,04,16,12,14,11.90
2013,04,16,12,15,11.90
2013,04,16,12,16,11.90
2013,04,16,12,17,11.90
2013,04,16,12,18,11.80
2013,04,16,12,19,11.80
2013,04,16,12,20,11.80
2013,04,16,12,21,11.80
2013,04,16,12,22,11.80
2013,04,16,12,23,11.80
2013,04,16,12,24,11.90
2013,04,16,12,25,12.00
2013,04,16,12,26,12.10
2013,04,16,12,27,12.20
2013,04,16,12,28,12.20
2013,04,16,12,29,12.30
2013,04,16,12,30,12.30
2013,04,16,12,31,12.30
2013,04,16,12,32,12.30
2013,04,16,12,33,12.30
2013,04,16,12,34,12.30
2013,04,16,12,35,12.30
2013,04,16,12,36,12.20
2013,04,16,12,37,12.10
2013,04,16,12,38,12.00
2013,04,16,12,39,12.00
2013,04,16,12,40,12.00
2013,04,16,12,41,11.90
2013,04,16,12,42,12.00
2013,04,16,12,43,12.10
2013,04,16,12,44,12.20
2013,04,16,12,45,12.20
2013,04,16,12,46,12.20
2013,04,16,12,47,12.30
2013,04,16,12,48,12.30
2013,04,16,12,49,12.30
2013,04,16,12,50,12.30
2013,04,16,12,51,12.30
2013,04,16,12,52,12.30
2013,04,16,12,53,12.40
2013,04,16,12,54,12.40
2013,04,16,12,55,12.50
2013,04,16,12,56,12.60
2013,04,16,12,57,12.70
2013,04,16,12,58,12.70
2013,04,16,12,59,12.70
2013,04,16,13,00,12.70
2013,04,16,13,01,12.70
2013,04,16,13,02,12.70
2013,04,16,13,03,12.70
2013,04,16,13,04,12.60
2013,04,16,13,05,12.60
2013,04,16,13,06,12.60
2013,04,16,13,07,12.70
2013,04,16,13,08,12.80
2013,04,16,13,09,12.80
2013,04,16,13,10,12.80
2013,04,16,13,11,12.80
2013,04,16,13,12,12.80
2013,04,16,13,13,12.80
2013,04,16,13,14,12.80
2013,04,16,13,15,12.70
2013,04,16,13,16,12.70
2013,04,16,13,17,12.60
2013,04,16,13,18,12.60
2013,04,16,13,19,12.50
2013,04,16,13,20,12.50
2013,04,16,13,21,12.40
2013,04,16,13,22,12.40
2013,04,16,13,23,12.40
2013,04,16,13,24,12.40
2013,04,16,13,25,12.30
2013,04,16,13,26,12.30
2013,04,16,13,27,12.30
2013,04,16,13,28,12.40
2013,04,16,13,29,12.40
2013,04,16,13,30,12.50
2013,04,16,13,31,12.50
2013,04,16,13,32,12.50
2013,04,16,13,33,12.50
2013,04,16,13,34,12.50
2013,04,16,13,35,12.50
2013,04,16,13,36,12.60
2013,04,16,13,37,12.60
2013,04,16,13,38,12.70
2013,04,16,13,39,12.70
2013,04,16,13,40,12.70
2013,04,16,13,41,12.80
2013,04,16,13,42,12.80
2013,04,16,13,43,12.90
2013,04,16,13,44,12.90
2013,04,16,13,45,13.00
2013,04,16,13,46,13.00
2013,04,16,13,47,12.90
2013,04,16,13,48,12.90
2013,04,16,13,49,12.80
2013,04,16,13,50,12.80
2013,04,16,13,51,12.70
2013,04,16,13,52,12.70
2013,04,16,13,53,12.70
2013,04,16,13,54,12.80
2013,04,16,13,55,12.80
2013,04,16,13,56,12.80
2013,04,16,13,57,12.90
2013,04,16,13,58,13.00
2013,04,16,13,59,13.10
2013,04,16,14,00,13.30
2013,04,16,14,01,13.40
2013,04,16,14,02,13.40
2013,04,16,14,03,13.50
2013,04,16,14,04,13.40
2013,04,16,14,05,13.50
2013,04,16,14,06,13.60
2013,04,16,14,07,13.60
2013,04,16,14,08,13.60
2013,04,16,14,09,13.70
2013,04,16,14,10,13.80
2013,04,16,14,11,13.90
2013,04,16,14,12,13.90
2013,04,16,14,13,13.90
2013,04,16,14,14,14.00
2013,04,16,14,15,14.00
2013,04,16,14,16,13.90
2013,04,16,14,17,13.80
2013,04,16,14,18,13.80
2013,04,16,14,19,13.80
2013,04,16,14,20,13.80
2013,04,16,14,21,13.70
2013,04,16,14,22,13.70
2013,04,16,14,23,13.70
2013,04,16,14,24,13.70
2013,04,16,14,25,13.60
2013,04,16,14,26,13.60
2013,04,16,14,27,13.60
2013,04,16,14,28,13.60
2013,04,16,14,29,13.60
2013,04,16,14,30,13.50
2013,04,16,14,31,13.40
2013,04,16,14,32,13.30
2013,04,16,14,33,13.20
2013,04,16,14,34,13.20
2013,04,16,14,35,13.10
2013,04,16,14,36,13.20
2013,04,16,14,37,13.10
2013,04,16,14,38,13.20
2013,04,16,14,39,13.20
2013,04,16,14,40,13.20
2013,04,16,14,41,13.20
2013,04,16,14,42,13.30
2013,04,16,14,43,13.30
2013,04,16,14,44,13.30
2013,04,16,14,45,13.30
2013,04,16,14,46,13.30
2013,04,16,14,47,13.30
2013,04,16,14,48,13.40
2013,04,16,14,49,13.40
2013,04,16,14,50,13.50
2013,04,16,14,51,13.50
2013,04,16,14,52,13.60
2013,04,16,14,53,13.60
2013,04,16,14,54,13.60
2013,04,16,14,55,13.70
2013,04,16,14,56,13.70
2013,04,16,14,57,13.60
2013,04,16,14,58,13.50
2013,04,16,14,59,13.50
2013,04,16,15,00,13.40
2013,04,16,15,01,13.40
2013,04,16,15,02,13.40
2013,04,16,15,03,13.40
2013,04,16,15,04,13.50
2013,04,16,15,05,13.50
2013,04,16,15,06,13.50
2013,04,16,15,07,13.50
2013,04,16,15,08,13.60
2013,04,16,15,09,13.70
2013,04,16,15,10,13.80
2013,04,16,15,11,13.80
2013,04,16,15,12,13.80
2013,04,16,15,13,13.80
2013,04,16,15,14,13.80
2013,04,16,15,15,13.90
2013,04,16,15,16,14.00
2013,04,16,15,17,14.00
2013,04,16,15,18,14.00
2013,04,16,15,19,14.00
2013,04,16,15,20,13.90
2013,04,16,15,21,13.90
2013,04,16,15,22,13.90
2013,04,16,15,23,13.90
2013,04,16,15,24,13.90
2013,04,16,15,25,13.90
2013,04,16,15,26,13.90
2013,04,16,15,27,13.90
2013,04,16,15,28,13.90
2013,04,16,15,29,13.90
2013,04,16,15,30,13.90
2013,04,16,15,31,13.80
2013,04,16,15,32,13.90
2013,04,16,15,33,13.90
2013,04,16,15,34,13.90
2013,04,16,15,35,13.90
2013,04,16,15,36,13.90
2013,04,16,15,37,13.90
2013,04,16,15,38,13.90
2013,04,16,15,39,13.80
2013,04,16,15,40,13.80
2013,04,16,15,41,13.80
2013,04,16,15,42,13.80
2013,04,16,15,43,13.70
2013,04,16,15,44,13.70
2013,04,16,15,45,13.70
2013,04,16,15,46,13.70
2013,04,16,15,47,13.70
2013,04,16,15,48,13.70
2013,04,16,15,49,13.80
2013,04,16,15,50,13.80
2013,04,16,15,51,13.80
2013,04,16,15,52,13.70
2013,04,16,15,53,13.80
2013,04,16,15,54,13.80
2013,04,16,15,55,13.80
2013,04,16,15,56,13.80
2013,04,16,15,57,13.70
2013,04,16,15,58,13.70
2013,04,16,15,59,13.60
2013,04,16,16,00,13.60
2013,04,16,16,01,13.70
2013,04,16,16,02,13.80
2013,04,16,16,03,13.80
2013,04,16,16,04,13.80
2013,04,16,16,05,13.80
2013,04,16,16,06,13.80
2013,04,16,16,07,13.80
2013,04,16,16,08,13.90
2013,04,16,16,09,13.80
2013,04,16,16,10,13.80
2013,04,16,16,11,13.80
2013,04,16,16,12,13.80
2013,04,16,16,13,13.90
2013,04,16,16,14,13.90
2013,04,16,16,15,14.00
2013,04,16,16,16,14.10
2013,04,16,16,17,14.10
2013,04,16,16,18,14.10
2013,04,16,16,19,14.00
2013,04,16,16,20,13.90
2013,04,16,16,21,13.90
2013,04,16,16,22,13.90
2013,04,16,16,23,13.90
2013,04,16,16,24,14.00
2013,04,16,16,25,14.00
2013,04,16,16,26,14.00
2013,04,16,16,27,14.00
2013,04,16,16,28,14.00
2013,04,16,16,29,13.90
2013,04,16,16,30,13.90
2013,04,16,16,31,13.90
2013,04,16,16,32,13.90
2013,04,16,16,33,13.90
2013,04,16,16,34,13.90
2013,04,16,16,35,13.90
2013,04,16,16,36,13.90
2013,04,16,16,37,13.90
2013,04,16,16,38,13.90
2013,04,16,16,39,13.90
2013,04,16,16,40,13.80
2013,04,16,16,41,13.80
2013,04,16,16,42,13.80
2013,04,16,16,43,13.90
2013,04,16,16,44,13.90
2013,04,16,16,45,14.00
2013,04,16,16,46,14.00
2013,04,16,16,47,14.00
2013,04,16,16,48,13.90
2013,04,16,16,49,13.90
2013,04,16,16,50,13.80
2013,04,16,16,51,13.90
2013,04,16,16,52,14.00
2013,04,16,16,53,14.00
2013,04,16,16,54,14.10
2013,04,16,16,55,14.20
2013,04,16,16,56,14.30
2013,04,16,16,57,14.30
2013,04,16,16,58,14.30
2013,04,16,16,59,14.20
2013,04,16,17,00,14.20
2013,04,16,17,01,14.20
2013,04,16,17,02,14.30
2013,04,16,17,03,14.30
2013,04,16,17,04,14.30
2013,04,16,17,05,14.30
2013,04,16,17,06,14.30
2013,04,16,17,07,14.30
2013,04,16,17,08,14.30
2013,04,16,17,09,14.40
2013,04,16,17,10,14.40
2013,04,16,17,11,14.50
2013,04,16,17,12,14.50
2013,04,16,17,13,14.50
2013,04,16,17,14,14.40
2013,04,16,17,15,14.40
2013,04,16,17,16,14.40
2013,04,16,17,17,14.40
2013,04,16,17,18,14.40
2013,04,16,17,19,14.30
2013,04,16,17,20,14.40
2013,04,16,17,21,14.40
2013,04,16,17,22,14.50
2013,04,16,17,23,14.50
2013,04,16,17,24,14.60
2013,04,16,17,25,14.60
2013,04,16,17,26,14.70
2013,04,16,17,27,14.80
2013,04,16,17,28,14.90
2013,04,16,17,29,15.00
2013,04,16,17,30,15.00
2013,04,16,17,31,15.00
2013,04,16,17,32,15.00
2013,04,16,17,33,15.10
2013,04,16,17,34,15.30
2013,04,16,17,35,15.30
2013,04,16,17,36,15.30
2013,04,16,17,37,15.30
2013,04,16,17,38,15.20
2013,04,16,17,39,15.00
2013,04,16,17,40,14.90
2013,04,16,17,41,14.70
2013,04,16,17,42,14.60
2013,04,16,17,43,14.50
2013,04,16,17,44,14.40
2013,04,16,17,45,14.20